Back to catalog

CZ-6A DEB

AliveSSO
NORAD 55872·DEBRIS·🇨🇳 China

Launched Nov 11, 2022 from Taiyuan Satellite Launch Center

Loading…

Next Passes (next 24 hours)

TLE

FreshSource: Space-Track

Epoch: Sep 14, 2026, 10:57 UTC

1 55872U 22151ZU  26257.45677350  .00000159  00000-0  11119-3 0  9998
2 55872  98.8394 257.9860 0041187  60.6748 299.8528 14.11408870185639

Track CZ-6A DEB in real time with AllMySat

Download on the App Store